Malaga, Spain

12:39 AM CET on December 09, 2016 (GMT +0100)
Malaga

Weather History for LEMG - December, 2012

Change the Weather History Date:

Thursday, December 13, 2012

  Actual Average Record
Temperature  
Mean Temperature 55 °F -  
Max Temperature 64 °F 60 °F 71 °F (1999)
Min Temperature 46 °F 45 °F 39 °F (2000)
Degree Days  
Heating Degree Days 10    
Growing Degree Days 5 (Base 50)    
Moisture  
Dew Point 50 °F    
Average Humidity 87    
Maximum Humidity 100    
Minimum Humidity 58    
Precipitation  
Precipitation 0.00 in 0.12 in - ()
Sea Level Pressure  
Sea Level Pressure 30.00 in    
Wind  
Wind Speed 4 mph ()    
Max Wind Speed 8 mph    
Max Gust Speed -    
Visibility 6.4 miles    
Events      
Averages and records for this station are not official NWS values.
T = Trace of Precipitation, MM = Missing Value Source: Averaged Metar Reports

Daily Weather History Graph

Daily Weather History Graph

Search for Another Location

Airport or City:

Trip Planner

Search our weather history database for the weather conditions in past years. The results will help you decide how hot, cold, wet, or windy it might be!

Date:

Astronomy

Dec. 13, 2012 Rise Set
Actual Time 8:21 AM CET 6:02 PM CET
Civil Twilight 7:53 AM CET 6:31 PM CET
Nautical Twilight 7:20 AM CET 7:03 PM CET
Astronomical Twilight 6:49 AM CET 7:35 PM CET
Moon 8:16 AM CET (12/13) 6:28 PM CET (12/13)
Length of Visible Light 10h 38m
Length of Day
9h 40m
New Moon, 0% of the Moon is Illuminated
Dec 13
New Moon
Dec 20
First Quarter
Dec 28
Full
Jan 5
Last Quarter
Jan 11
New

Hourly Weather History & Observations

Time (CET) Temp. Windchill Dew Point Humidity Pressure Visibility Wind Dir Wind Speed Gust Speed Precip Events Conditions
12:00 AM 48.2 °F - 46.4 °F 93% 30.01 in 6.2 mi NW 2.3 mph - N/A   Scattered Clouds
12:30 AM 48.2 °F - 46.4 °F 93% 30.01 in 6.2 mi WNW 2.3 mph - N/A   Scattered Clouds
1:00 AM 50 °F - 47 °F 85% 30.01 in 6 mi WNW 5.8 mph - -   Scattered Clouds
1:00 AM 48.2 °F - 48.2 °F 100% 30.01 in 6.2 mi WNW 5.8 mph - N/A   Partly Cloudy
1:30 AM 50.0 °F - 48.2 °F 94% 30.01 in 6.2 mi WNW 8.1 mph - N/A   Scattered Clouds
2:00 AM 50.0 °F - 48.2 °F 94% 29.98 in 6.2 mi WNW 4.6 mph - N/A   Partly Cloudy
2:30 AM 48.2 °F - 48.2 °F 100% 29.98 in 6.2 mi WNW 2.3 mph - N/A   Scattered Clouds
3:30 AM 50.0 °F - 48.2 °F 94% 29.98 in 6.2 mi NW 4.6 mph - N/A   Mostly Cloudy
4:00 AM 50.0 °F - 48.2 °F 94% 29.98 in 6.2 mi NW 2.3 mph - N/A   Mostly Cloudy
4:30 AM 48.2 °F - 48.2 °F 100% 29.98 in 6.2 mi WNW 4.6 mph - N/A   Mostly Cloudy
5:00 AM 50.0 °F - 48.2 °F 94% 29.98 in 6.2 mi WNW 8.1 mph - N/A   Mostly Cloudy
5:30 AM 50.0 °F - 48.2 °F 94% 29.98 in 6.2 mi WNW 5.8 mph - N/A   Mostly Cloudy
6:00 AM 50.0 °F - 48.2 °F 94% 29.98 in 6.2 mi WNW 3.5 mph - N/A   Scattered Clouds
6:30 AM 50.0 °F - 48.2 °F 94% 29.98 in 6.2 mi WNW 6.9 mph - N/A   Scattered Clouds
7:00 AM 49 °F - 47 °F 92% 29.98 in 6 mi NW 3.5 mph - -   Scattered Clouds
7:00 AM 46.4 °F 45.2 °F 46.4 °F 100% 29.98 in 6.2 mi NW 3.5 mph - N/A   Partly Cloudy
7:30 AM 48.2 °F - 46.4 °F 93% 29.98 in 6.2 mi WNW 6.9 mph - N/A   Partly Cloudy
8:00 AM 48.2 °F - 46.4 °F 93% 29.98 in 6.2 mi WNW 5.8 mph - N/A   Partly Cloudy
8:30 AM 46.4 °F 43.5 °F 46.4 °F 100% 29.98 in 6.2 mi WNW 5.8 mph - N/A   Partly Cloudy
9:00 AM 46.4 °F 42.9 °F 46.4 °F 100% 30.01 in 6.2 mi WNW 6.9 mph - N/A   Partly Cloudy
9:30 AM 48.2 °F - 48.2 °F 100% 30.01 in - WNW 3.5 mph - N/A   Clear
10:00 AM 50.0 °F - 48.2 °F 94% 30.01 in - WNW 4.6 mph - N/A   Clear
10:30 AM 51.8 °F - 50.0 °F 94% 30.04 in - NW 3.5 mph - N/A   Clear
11:00 AM 53.6 °F - 51.8 °F 94% 30.04 in - NW 3.5 mph - N/A   Clear
11:30 AM 57.2 °F - 51.8 °F 82% 30.04 in 6.2 mi Variable 2.3 mph - N/A   Partly Cloudy
12:00 PM 59.0 °F - 51.8 °F 77% 30.04 in 6.2 mi Variable 1.2 mph - N/A   Partly Cloudy
12:30 PM 60.8 °F - 51.8 °F 72% 30.01 in 6.2 mi Calm Calm - N/A   Partly Cloudy
1:00 PM 63 °F - 52 °F 58% 30.03 in 12 mi 2.3 mph - -   Scattered Clouds
1:00 PM 62.6 °F - 53.6 °F 72% 30.01 in 6.2 mi Variable 2.3 mph - N/A   Partly Cloudy
1:30 PM 62.6 °F - 53.6 °F 72% 30.01 in 6.2 mi Variable 2.3 mph - N/A   Partly Cloudy
2:00 PM 62.6 °F - 53.6 °F 72% 30.01 in 6.2 mi SE 3.5 mph - N/A   Partly Cloudy
2:30 PM 64.4 °F - 53.6 °F 68% 29.98 in 6.2 mi Variable 2.3 mph - N/A   Partly Cloudy
3:00 PM 62.6 °F - 53.6 °F 72% 29.98 in 6.2 mi SSE 3.5 mph - N/A   Partly Cloudy
3:30 PM 62.6 °F - 53.6 °F 72% 29.98 in 6.2 mi South 3.5 mph - N/A   Partly Cloudy
4:00 PM 62.6 °F - 53.6 °F 72% 29.98 in 6.2 mi South 5.8 mph - N/A   Partly Cloudy
4:30 PM 60.8 °F - 55.4 °F 82% 29.98 in 6.2 mi South 3.5 mph - N/A   Partly Cloudy
5:00 PM 60.8 °F - 53.6 °F 77% 29.98 in 6.2 mi SSW 6.9 mph - N/A   Partly Cloudy
5:30 PM 59.0 °F - 53.6 °F 82% 29.98 in 6.2 mi SSW 3.5 mph - N/A   Partly Cloudy
6:00 PM 59.0 °F - 53.6 °F 82% 29.98 in 6.2 mi SSW 2.3 mph - N/A   Partly Cloudy
6:30 PM 55.4 °F - 51.8 °F 88% 29.98 in 6.2 mi Calm Calm - N/A   Partly Cloudy
7:00 PM 57 °F - 51 °F 73% 30.01 in 9 mi Calm Calm - -   Scattered Clouds
7:00 PM 55.4 °F - 50.0 °F 82% 30.01 in 6.2 mi Calm Calm - N/A   Partly Cloudy
7:30 PM 51.8 °F - 50.0 °F 94% 30.01 in 6.2 mi NW 3.5 mph - N/A   Partly Cloudy
8:00 PM 55.4 °F - 50.0 °F 82% 30.01 in 6.2 mi West 6.9 mph - N/A   Partly Cloudy
8:30 PM 55.4 °F - 50.0 °F 82% 30.01 in 6.2 mi West 5.8 mph - N/A   Partly Cloudy
9:00 PM 57.2 °F - 50.0 °F 77% 30.01 in 6.2 mi West 6.9 mph - N/A   Partly Cloudy
9:30 PM 55.4 °F - 50.0 °F 82% 30.04 in 6.2 mi WNW 6.9 mph - N/A   Partly Cloudy
10:00 PM 51.8 °F - 48.2 °F 88% 30.04 in 6.2 mi NW 3.5 mph - N/A   Partly Cloudy
10:30 PM 50.0 °F - 48.2 °F 94% 30.04 in 6.2 mi WNW 4.6 mph - N/A   Partly Cloudy
11:00 PM 48.2 °F - 46.4 °F 93% 30.04 in 6.2 mi NW 2.3 mph - N/A   Partly Cloudy